Regional Weather Roundup
Issued by NWS

Home | Current Version | Previous Version | Text Only | Print | Product List | Glossary Off
Versions: 1 2 3 4 5 6 7 8 9 10 11 12 13 14 15 16 17 18 19 20 21 22 23 24 25 26 27 28 29 30 31 32 33 34 35 36 37 38 39 40 41 42 43 44 45 46 47 48 49 50

000
ASUS45 KABQ 191510
RWRNM
NEW MEXICO REGIONAL WEATHER ROUNDUP
NATIONAL WEATHER SERVICE ALBUQUERQUE NM
800 AM MST SUN FEB 19 2017

NOTE: "FAIR" MEANS FEW OR NO CLOUDS BELOW 12,000 FEET AGL WITH NO
       SIGNIFICANT WEATHER OR OBSTRUCTIONS TO VISION.

      THIS PRODUCT IS RELEASED AS TWO VERSIONS.  ONE VERSION NEAR
      THE TOP OF THE HOUR CONTAINING PRELIMINARY DATA FROM ALBUQUERQUE
      AND OTHER STATIONS.  A FINAL VERSION WITH ADDITIONAL DATA IS
      ISSUED ABOUT 10 MINUTES AFTER THE HOUR.

NMZ501-503-504-510>518-191600-
NORTHWEST PLATEAU/NORTHCENTRAL MOUNTAINS

CITY           SKY/WX    TMP DP  RH WIND       PRES   REMARKS
FARMINGTON     CLOUDY    41  35  79 E13       29.78S
LOS ALAMOS     FAIR      34  34 100 SE3       29.85S
SANTA FE       FAIR      39  35  86 NE5       29.83F
TAOS             N/A     36  23  60 W7        29.85R WCI  30
ANGEL FIRE     CLOUDY    30  27  88 SE3       29.87R

$$
NMZ402-403-502-505>509-191600-
WESTCENTRAL MOUNTAINS/SOUTHWEST MOUNTAINS

CITY           SKY/WX    TMP DP  RH WIND       PRES   REMARKS
GALLUP         FAIR      34  31  88 SW14      29.85R WCI  25
GRANTS         FAIR      35  31  87 CALM      29.87R
SILVER CITY    FAIR      35  32  90 W3        29.91R

$$
NMZ407-409-411-412-191600-
SOUTHERN DESERTS

CITY           SKY/WX    TMP DP  RH WIND       PRES   REMARKS
DEMING         FAIR      40  35  83 CALM      29.92R
LAS CRUCES     FAIR      41  35  77 W9        29.92S
HOLLOMAN AFB   FAIR      44  40  83 S5        29.92R
ALAMOGORDO     FAIR      45  37  76 S13       29.89S
T OR C         FAIR      41  35  79 W5        29.86R

$$
NMZ519>523-191600-
CENTRAL VALLEYS/CENTRAL HIGHLANDS

CITY           SKY/WX    TMP DP  RH WIND       PRES   REMARKS
ALBUQUERQUE    PTSUNNY   41  38  89 SW12      29.87R
DOUBLE EAGLE   CLOUDY    37  37 100 S8        29.86R WCI  31
MORIARTY ARPT  FAIR      37  34  88 S7        29.86R WCI  32
CLINES CORNERS FAIR      31  29  92 W8        29.85F WCI  23
BELEN          CLOUDY    40  38  90 S8        29.87R WCI  35
SOCORRO        CLOUDY    41  39  90 SE6       29.86R

$$
NMZ524>526-539-540-191600-
SOUTHCENTRAL MOUNTAINS

CITY           SKY/WX    TMP DP  RH WIND       PRES   REMARKS
RUIDOSO        FAIR      32  32 100 SW5       29.91R WCI  27

$$
NMZ527>531-191600-
NORTHEAST HIGHLANDS/NORTHEAST PLAINS

CITY           SKY/WX    TMP DP  RH WIND       PRES   REMARKS
LAS VEGAS      FAIR      35  30  82 S7        29.83S WCI  29
RATON          CLOUDY    41  30  65 VRB3      29.81S
CLAYTON        FAIR      46  40  79 S9        29.81S

$$
NMZ532>537-191600-
EASTCENTRAL PLAINS

CITY           SKY/WX    TMP DP  RH WIND       PRES   REMARKS
TUCUMCARI      FAIR      49  40  71 SW12      29.81R
CANNON AFB     CLOUDY    45  45 100 W3        29.84R
CLOVIS AIRPORT FAIR      43  39  87 CALM      29.83R

$$
NMZ028-029-538-191600-
SOUTHEAST PLAINS

CITY           SKY/WX    TMP DP  RH WIND       PRES   REMARKS
ROSWELL        PTSUNNY   48  35  60 CALM        N/A
ARTESIA        FAIR      50  37  62 S7        29.86R
CARLSBAD       FAIR      55  36  48 CALM      29.83R
HOBBS          SUNNY     52  34  50 W10       29.86R


$$




USA.gov is the U.S. government's official web portal to all federal, state and local government web resources and services.